#timestamp,LO_Frequency,Hit,StdDev 
1541030415.2,286047001.3,P
1541030435.0,286047002.7,P
1541030435.9,286047002.7,N
1541030455.8,286046998.5,N
1541030475.6,286047000.7,N
1541030495.4,286047002.4,N
1541030515.3,286047004.4,Y
1541030535.1,286046999.9,P
1541030555.9,286047000.8,N
1541030575.7,286047000.9,N
1541030595.5,286046999.9,N
1541030615.4,286046999.4,N
1541030635.2,286046998.6,N
1541030655.0,286046998.8,N
1541030655.9,286046998.8,N
1541030675.8,286046998.9,N
1541030695.6,286046995.3,Y
1541030715.5,286046997.4,P
1541030735.3,286046995.3,P
1541030755.1,286046997.4,N
1541030775.9,286046999.5,N
1541030795.7,286047000.9,N
1541030815.5,286046999.7,N
1541030835.4,286047000.5,N
1541030855.2,286046998.3,N
1541030875.0,286047002.7,N
1541030876.0,286047002.7,N
1541030895.8,286047003.7,N
1541030915.6,286047001.8,N
1541030935.5,286047004.4,N
1541030955.3,286047001.4,N
1541030975.1,286047002.7,N
1541030995.9,286046998.2,N
1541031015.7,286046998.6,N
1541031035.5,286046997.8,N
1541031055.4,286046995.4,N
1541031075.2,286046993.7,N
1541031095.1,286046993.7,N
1541031096.0,286046993.7,N
1541031115.8,286046993.6,N
1541031135.6,286046994.5,N
1541031155.5,286046992.1,N
1541031175.3,286046993.2,N
1541031195.1,286046990.8,N
1541031215.9,286046993.1,N
1541031235.7,286046992.6,N
1541031255.6,286046992.1,N
1541031275.4,286046993.6,N
1541031295.2,286046995.1,N
1541031315.1,286046997.3,N
1541031316.0,286046997.3,N
1541031335.8,286047000.5,N
1541031355.6,286047000.1,N
1541031375.5,286047001.1,N
1541031395.3,286047002.4,N
1541031415.2,286047002.5,N
1541031435.9,286047000.3,N
1541031455.7,286047001.6,N
1541031475.6,286047005.4,N
1541031495.4,286047005.3,N
1541031515.2,286047004.6,N
1541031535.1,286047005.2,N
1541031536.0,286047005.2,N
1541031555.8,286047005.0,N
1541031575.6,286047007.0,N
1541031595.5,286047005.2,N
1541031615.3,286047004.5,N
1541031635.2,286047006.7,N
1541031655.9,286047006.5,N
1541031675.7,286047006.9,N
1541031695.6,286047008.8,N
1541031715.4,286047010.1,N
1541031735.2,286047011.7,N
1541031755.1,286047011.3,N
1541031756.0,286047011.3,N
1541031775.8,286047013.6,N
1541031795.7,286047014.9,N
1541031815.5,286047018.1,Y
1541031835.3,286047012.5,P
1541031855.2,286047015.1,P
1541031875.0,286047014.3,P
1541031875.9,286047014.3,Y
1541031895.7,286047002.9,P
1541031915.6,286047005.4,N
1541031935.4,286047005.4,N
1541031955.3,286047005.2,N
1541031975.1,286047007.6,N
1541031976.0,286047007.6,N
1541031995.8,286047007.3,N
1541032015.7,286047008.8,Y
1541032035.5,286047004.3,P
1541032055.4,286047004.9,P
1541032075.2,286047006.4,P
1541032095.0,286047006.1,Y
1541032095.9,286047006.1,P
1541032115.8,286047003.7,P
1541032135.6,286047004.1,P
1541032155.4,286047001.5,N
1541032175.3,286047001.4,N
1541032195.1,286047002.1,N
1541032215.9,286047004.4,N
1541032235.7,286047004.4,N
1541032255.5,286047001.3,N
1541032275.4,286047001.6,N
1541032295.2,286047003.4,N
1541032315.0,286047007.6,Y
1541032315.9,286047007.6,P
1541032335.8,286047002.3,N
1541032355.6,286047003.9,N
1541032375.5,286047004.9,N
1541032395.3,286047006.8,Y
1541032415.1,286047005.0,P
1541032435.9,286047007.1,P
1541032455.7,286047006.3,P
1541032475.5,286047007.5,Y
1541032495.4,286047001.1,P
1541032515.2,286047000.2,N
1541032535.1,286047002.8,N
1541032536.0,286047002.8,N
1541032555.8,286047001.8,N
1541032575.6,286047001.3,N
1541032595.5,286047001.6,N
1541032615.3,286047001.4,N
1541032635.1,286047004.1,N
1541032655.9,286047002.9,N
1541032675.7,286047004.4,N
1541032695.6,286047000.8,N
1541032715.4,286046996.6,N
1541032735.2,286046997.7,N
1541032755.1,286046996.1,N
1541032756.0,286046996.1,N
1541032775.8,286046996.1,N
1541032795.6,286046993.5,N
1541032815.5,286046995.1,N
1541032835.3,286046997.0,N
1541032855.1,286046996.9,N
1541032875.9,286046999.0,N
1541032895.7,286046998.6,N
1541032915.6,286046997.7,N
1541032935.4,286046997.7,N
1541032955.2,286046997.2,N
1541032975.1,286046994.9,N
1541032976.0,286046994.9,N
1541032995.8,286046995.9,N
1541033015.6,286046995.7,N
1541033035.5,286046995.8,N
1541033055.3,286046996.1,N
1541033075.2,286046994.5,N
1541033095.9,286046993.7,N
1541033115.7,286046991.7,N
1541033135.6,286046994.3,N
1541033155.4,286046991.8,N
1541033175.2,286046992.4,N
1541033195.1,286046992.4,N
1541033196.0,286046992.4,N
1541033215.8,286046992.2,N
1541033235.7,286046993.1,Y
1541033255.5,286046995.1,P
1541033275.3,286046995.6,P
1541033325.2,286046997.9,E
1541033335.1,286046997.2,N
1541033355.9,286046998.7,P
1541033375.7,286047001.2,N
1541033395.5,286046996.5,N
1541033415.4,286046997.2,N
1541033435.2,286046997.8,N
1541033455.1,286046996.8,N
1541033456.0,286046996.8,N
1541033475.8,286046996.1,N
1541033495.6,286046993.7,Y
1541033515.5,286046995.0,P
1541033535.3,286046993.6,P
1541033555.1,286046993.5,P
1541033575.9,286046992.2,Y
1541033595.7,286046997.6,P
1541033615.6,286046996.7,N
1541033635.4,286046997.8,N
1541033655.2,286046997.3,N
1541033675.1,286046999.6,N
1541033676.0,286046999.6,N
1541033695.8,286046995.3,Y
1541033715.7,286046999.5,P
1541033735.5,286046995.2,P
1541033755.3,286046993.3,P
1541033775.2,286046996.3,N
1541033795.9,286046995.0,N
1541033815.7,286046995.2,N
1541033835.6,286046997.5,N
1541033855.4,286046997.5,N
1541033875.2,286046998.8,N
1541033895.1,286046997.2,N
1541033896.0,286046997.2,N
1541033915.8,286046999.1,N
1541033935.7,286046999.1,N
1541033955.5,286046999.2,N
1541033975.3,286046995.0,N
1541033995.2,286046993.3,Y
